Location: Strawberry
(45.6646°N, 111.9596°W)
Time: 17:46:34
(UTC+00:00)

SR - Pass Details

Date: 12 October 2022
Orbit: 577 x 874 km, 66.7° (Epoch: 05 December)

Event Time Altitude Azimuth Distance (km) Brightness Sun altitude
Exits shadow 11:19:01 13° 168° (SSE) 1,934 ? -25.3°
Drops below altitude 10° 11:19:30 10° 166° (SSE) 2,114 ? -25.2°
Sets 11:21:44 0° 162° (SSE) 2,979 ? -24.8°
